Retour au catalogue

FENGYUN 1C DEB

ActifSSO
NORAD 33701·DEBRIS·🇨🇳 China

Lancé May 10, 1999 depuis Taiyuan Satellite Launch Center

Loading…

Prochains Passages (prochaines 24 heures)

TLE

FraisSource: Space-Track

Époque: Sep 13, 2026, 06:47 UTC

1 33701U 99025DGN 26256.28325962  .00001780  00000-0  10769-2 0  9998
2 33701  98.6748 202.7926 0131201 137.2171 223.9298 14.03474702943559

Suivez FENGYUN 1C DEB en temps réel avec AllMySat

Download on the App Store